Time,TemperatureF,DewpointF,PressureIn,WindDirection,WindDirectionDegrees,WindSpeedMPH,WindSpeedGustMPH,Humidity,HourlyPrecipIn,Conditions,Clouds,dailyrainin,SoftwareType,DateUTC
2013-04-20 00:02:00,36.0,27.0,-100.00,WNW,300,15.0,21.0,71,-99.99,,,-99.99,,2013-04-20 05:02:00,
2013-04-20 00:12:00,35.0,27.0,-100.00,WNW,300,13.0,17.0,72,-99.99,,,-99.99,,2013-04-20 05:12:00,
2013-04-20 00:22:00,35.0,27.0,-100.00,WNW,300,11.0,15.0,74,-99.99,,,-99.99,,2013-04-20 05:22:00,
2013-04-20 00:32:00,35.0,27.0,-100.00,WNW,300,11.0,15.0,74,-99.99,,,-99.99,,2013-04-20 05:32:00,
2013-04-20 00:43:00,34.0,28.0,-100.00,NW,310,9.0,12.0,76,-99.99,,,-99.99,,2013-04-20 05:43:00,
2013-04-20 00:52:00,34.0,28.0,-100.00,WNW,295,9.0,10.0,78,-99.99,,,-99.99,,2013-04-20 05:52:00,
2013-04-20 01:02:00,34.0,28.0,-100.00,WNW,295,9.0,10.0,78,-99.99,,,-99.99,,2013-04-20 06:02:00,
2013-04-20 01:12:00,33.0,28.0,-100.00,West,275,6.0,9.0,80,-99.99,,,-99.99,,2013-04-20 06:12:00,
2013-04-20 01:21:00,33.0,28.0,-100.00,West,280,6.0,11.0,82,-99.99,,,-99.99,,2013-04-20 06:21:00,
2013-04-20 01:32:00,33.0,28.0,-100.00,West,280,6.0,11.0,82,-99.99,,,-99.99,,2013-04-20 06:32:00,
2013-04-20 01:42:00,34.0,29.0,-100.00,WNW,290,9.0,14.0,82,-99.99,,,-99.99,,2013-04-20 06:42:00,
2013-04-20 01:52:00,33.0,28.0,-100.00,WNW,290,8.0,10.0,82,-99.99,,,-99.99,,2013-04-20 06:52:00,
2013-04-20 02:01:00,33.0,28.0,-100.00,WNW,290,8.0,10.0,82,-99.99,,,-99.99,,2013-04-20 07:01:00,
2013-04-20 02:11:00,33.0,28.0,-100.00,NW,305,9.0,10.0,83,-99.99,,,-99.99,,2013-04-20 07:11:00,
2013-04-20 02:21:00,33.0,28.0,-100.00,WNW,295,8.0,11.0,80,-99.99,,,-99.99,,2013-04-20 07:21:00,
2013-04-20 02:32:00,33.0,28.0,-100.00,WNW,295,8.0,11.0,80,-99.99,,,-99.99,,2013-04-20 07:32:00,
2013-04-20 02:42:00,33.0,28.0,-100.00,WNW,300,10.0,13.0,79,-99.99,,,-99.99,,2013-04-20 07:42:00,
2013-04-20 02:52:00,33.0,27.0,-100.00,WNW,300,9.0,11.0,78,-99.99,,,-99.99,,2013-04-20 07:52:00,
2013-04-20 03:02:00,33.0,27.0,-100.00,WNW,300,9.0,11.0,78,-99.99,,,-99.99,,2013-04-20 08:02:00,
2013-04-20 03:11:00,33.0,27.0,-100.00,WNW,295,9.0,12.0,77,-99.99,,,-99.99,,2013-04-20 08:11:00,
2013-04-20 03:21:00,33.0,27.0,-100.00,WNW,290,9.0,12.0,77,-99.99,,,-99.99,,2013-04-20 08:21:00,
2013-04-20 03:32:00,33.0,27.0,-100.00,WNW,290,9.0,12.0,77,-99.99,,,-99.99,,2013-04-20 08:32:00,
2013-04-20 03:42:00,33.0,27.0,-100.00,WNW,290,9.0,12.0,77,-99.99,,,-99.99,,2013-04-20 08:42:00,
2013-04-20 03:52:00,32.0,27.0,-100.00,WNW,290,8.0,10.0,81,-99.99,,,-99.99,,2013-04-20 08:52:00,
2013-04-20 04:01:00,32.0,27.0,-100.00,WNW,290,8.0,10.0,81,-99.99,,,-99.99,,2013-04-20 09:01:00,
2013-04-20 04:12:00,31.0,27.0,-100.00,West,270,7.0,9.0,84,-99.99,,,-99.99,,2013-04-20 09:12:00,
2013-04-20 04:21:00,31.0,27.0,-100.00,West,270,10.0,11.0,85,-99.99,,,-99.99,,2013-04-20 09:21:00,
2013-04-20 04:33:00,31.0,27.0,-100.00,West,270,10.0,11.0,85,-99.99,,,-99.99,,2013-04-20 09:33:00,
2013-04-20 04:43:00,31.0,27.0,-100.00,West,275,8.0,10.0,85,-99.99,,,-99.99,,2013-04-20 09:43:00,
2013-04-20 04:53:00,31.0,27.0,-100.00,West,280,7.0,9.0,86,-99.99,,,-99.99,,2013-04-20 09:53:00,
2013-04-20 05:03:00,31.0,27.0,-100.00,West,280,7.0,9.0,86,-99.99,,,-99.99,,2013-04-20 10:03:00,
2013-04-20 05:13:00,31.0,27.0,-100.00,West,280,6.0,8.0,86,-99.99,,,-99.99,,2013-04-20 10:13:00,
2013-04-20 05:23:00,31.0,27.0,-100.00,WNW,285,8.0,9.0,86,-99.99,,,-99.99,,2013-04-20 10:23:00,
2013-04-20 05:33:00,31.0,27.0,-100.00,WNW,285,8.0,9.0,86,-99.99,,,-99.99,,2013-04-20 10:33:00,
2013-04-20 05:42:00,31.0,28.0,-100.00,WNW,295,9.0,9.0,87,-99.99,,,-99.99,,2013-04-20 10:42:00,
2013-04-20 05:53:00,31.0,27.0,-100.00,WNW,295,8.0,10.0,86,-99.99,,,-99.99,,2013-04-20 10:53:00,
2013-04-20 06:02:00,31.0,27.0,-100.00,WNW,295,8.0,10.0,86,-99.99,,,-99.99,,2013-04-20 11:02:00,
2013-04-20 06:12:00,31.0,27.0,-100.00,NW,305,8.0,10.0,86,-99.99,,,-99.99,,2013-04-20 11:12:00,
2013-04-20 06:23:00,31.0,27.0,-100.00,WNW,300,6.0,9.0,85,-99.99,,,-99.99,,2013-04-20 11:23:00,
2013-04-20 06:32:00,31.0,27.0,-100.00,WNW,300,6.0,9.0,85,-99.99,,,-99.99,,2013-04-20 11:32:00,
2013-04-20 06:42:00,31.0,27.0,-100.00,WNW,285,6.0,8.0,85,-99.99,,,-99.99,,2013-04-20 11:42:00,
2013-04-20 06:53:00,30.0,26.0,-100.00,West,275,6.0,7.0,85,-99.99,,,-99.99,,2013-04-20 11:53:00,
2013-04-20 07:02:00,30.0,26.0,-100.00,West,275,6.0,7.0,85,-99.99,,,-99.99,,2013-04-20 12:02:00,
2013-04-20 07:11:00,31.0,27.0,-100.00,WSW,255,4.0,6.0,84,-99.99,,,-99.99,,2013-04-20 12:11:00,
2013-04-20 07:22:00,32.0,28.0,-100.00,West,265,4.0,5.0,84,-99.99,,,-99.99,,2013-04-20 12:22:00,
2013-04-20 07:32:00,32.0,28.0,-100.00,West,265,4.0,5.0,84,-99.99,,,-99.99,,2013-04-20 12:32:00,
2013-04-20 07:42:00,33.0,28.0,-100.00,WNW,290,4.0,5.0,83,-99.99,,,-99.99,,2013-04-20 12:42:00,
2013-04-20 07:52:00,34.0,28.0,-100.00,West,270,5.0,6.0,80,-99.99,,,-99.99,,2013-04-20 12:52:00,
2013-04-20 08:02:00,34.0,28.0,-100.00,West,270,5.0,6.0,80,-99.99,,,-99.99,,2013-04-20 13:02:00,
2013-04-20 08:11:00,35.0,29.0,-100.00,West,275,6.0,6.0,78,-99.99,,,-99.99,,2013-04-20 13:11:00,
2013-04-20 08:21:00,36.0,29.0,-100.00,West,280,6.0,9.0,76,-99.99,,,-99.99,,2013-04-20 13:21:00,
2013-04-20 08:32:00,36.0,29.0,-100.00,West,280,6.0,9.0,76,-99.99,,,-99.99,,2013-04-20 13:32:00,
2013-04-20 08:42:00,36.0,29.0,-100.00,WNW,290,7.0,9.0,74,-99.99,,,-99.99,,2013-04-20 13:42:00,
2013-04-20 08:52:00,37.0,29.0,-100.00,West,280,6.0,9.0,72,-99.99,,,-99.99,,2013-04-20 13:52:00,
2013-04-20 09:02:00,37.0,29.0,-100.00,West,280,6.0,9.0,72,-99.99,,,-99.99,,2013-04-20 14:02:00,
2013-04-20 09:11:00,38.0,30.0,-100.00,West,270,6.0,8.0,71,-99.99,,,-99.99,,2013-04-20 14:11:00,
2013-04-20 09:21:00,39.0,30.0,-100.00,WNW,290,6.0,9.0,71,-99.99,,,-99.99,,2013-04-20 14:21:00,
2013-04-20 09:32:00,39.0,30.0,-100.00,WNW,290,6.0,9.0,71,-99.99,,,-99.99,,2013-04-20 14:32:00,
2013-04-20 09:42:00,40.0,31.0,-100.00,West,275,4.0,7.0,69,-99.99,,,-99.99,,2013-04-20 14:42:00,
2013-04-20 09:52:00,41.0,30.0,-100.00,WNW,295,4.0,8.0,66,-99.99,,,-99.99,,2013-04-20 14:52:00,
2013-04-20 10:01:00,41.0,30.0,-100.00,WNW,295,4.0,8.0,66,-99.99,,,-99.99,,2013-04-20 15:01:00,
2013-04-20 10:11:00,41.0,30.0,-100.00,SW,215,4.0,9.0,65,-99.99,,,-99.99,,2013-04-20 15:11:00,
2013-04-20 10:21:00,41.0,29.0,-100.00,NW,315,6.0,9.0,61,-99.99,,,-99.99,,2013-04-20 15:21:00,
2013-04-20 10:33:00,41.0,29.0,-100.00,NW,315,6.0,9.0,61,-99.99,,,-99.99,,2013-04-20 15:33:00,
2013-04-20 10:43:00,42.0,28.0,-100.00,NNW,335,7.0,9.0,58,-99.99,,,-99.99,,2013-04-20 15:43:00,
2013-04-20 10:53:00,42.0,23.0,-100.00,NNW,335,7.0,13.0,48,-99.99,,,-99.99,,2013-04-20 15:53:00,
2013-04-20 11:03:00,42.0,23.0,-100.00,NNW,335,7.0,13.0,48,-99.99,,,-99.99,,2013-04-20 16:03:00,
2013-04-20 11:12:00,43.0,26.0,-100.00,WNW,285,6.0,12.0,50,-99.99,,,-99.99,,2013-04-20 16:12:00,
2013-04-20 11:23:00,44.0,25.0,-100.00,West,265,4.0,9.0,48,-99.99,,,-99.99,,2013-04-20 16:23:00,
2013-04-20 11:32:00,44.0,25.0,-100.00,West,265,4.0,9.0,48,-99.99,,,-99.99,,2013-04-20 16:32:00,
2013-04-20 11:42:00,44.0,25.0,-100.00,NW,325,6.0,11.0,47,-99.99,,,-99.99,,2013-04-20 16:42:00,
2013-04-20 11:53:00,47.0,26.0,-100.00,West,260,1.0,11.0,45,-99.99,,,-99.99,,2013-04-20 16:53:00,
2013-04-20 12:02:00,47.0,26.0,-100.00,West,260,1.0,11.0,45,-99.99,,,-99.99,,2013-04-20 17:02:00,
2013-04-20 12:12:00,46.0,26.0,-100.00,NE,55,1.0,10.0,45,-99.99,,,-99.99,,2013-04-20 17:12:00,
2013-04-20 12:23:00,46.0,26.0,-100.00,NW,305,5.0,10.0,45,-99.99,,,-99.99,,2013-04-20 17:23:00,
2013-04-20 12:33:00,46.0,26.0,-100.00,NW,305,5.0,10.0,45,-99.99,,,-99.99,,2013-04-20 17:33:00,
2013-04-20 12:42:00,45.0,25.0,-100.00,SW,230,8.0,11.0,45,-99.99,,,-99.99,,2013-04-20 17:42:00,
2013-04-20 12:52:00,45.0,26.0,-100.00,SSW,195,6.0,16.0,46,-99.99,,,-99.99,,2013-04-20 17:52:00,
2013-04-20 13:02:00,45.0,26.0,-100.00,SSW,195,6.0,16.0,46,-99.99,,,-99.99,,2013-04-20 18:02:00,
2013-04-20 13:12:00,46.0,26.0,-100.00,NW,320,9.0,14.0,45,-99.99,,,-99.99,,2013-04-20 18:12:00,
2013-04-20 13:22:00,46.0,26.0,-100.00,West,280,6.0,14.0,45,-99.99,,,-99.99,,2013-04-20 18:22:00,
2013-04-20 13:32:00,46.0,26.0,-100.00,West,280,6.0,14.0,45,-99.99,,,-99.99,,2013-04-20 18:32:00,
2013-04-20 13:42:00,47.0,26.0,-100.00,SSW,195,5.0,15.0,45,-99.99,,,-99.99,,2013-04-20 18:42:00,
2013-04-20 13:52:00,47.0,27.0,-100.00,SW,215,4.0,10.0,45,-99.99,,,-99.99,,2013-04-20 18:52:00,
2013-04-20 14:02:00,47.0,27.0,-100.00,SW,215,4.0,10.0,45,-99.99,,,-99.99,,2013-04-20 19:02:00,
2013-04-20 14:11:00,45.0,26.0,-100.00,NE,40,6.0,11.0,46,-99.99,,,-99.99,,2013-04-20 19:11:00,
2013-04-20 14:21:00,48.0,27.0,-100.00,SW,220,6.0,14.0,45,-99.99,,,-99.99,,2013-04-20 19:21:00,
2013-04-20 14:32:00,48.0,27.0,-100.00,SW,220,6.0,14.0,45,-99.99,,,-99.99,,2013-04-20 19:32:00,
2013-04-20 14:42:00,48.0,26.0,-100.00,NNW,335,4.0,11.0,43,-99.99,,,-99.99,,2013-04-20 19:42:00,
2013-04-20 14:52:00,49.0,28.0,-100.00,WSW,245,6.0,13.0,44,-99.99,,,-99.99,,2013-04-20 19:52:00,
2013-04-20 15:02:00,49.0,28.0,-100.00,WSW,245,6.0,13.0,44,-99.99,,,-99.99,,2013-04-20 20:02:00,
2013-04-20 15:12:00,47.0,26.0,-100.00,SSW,200,5.0,12.0,43,-99.99,,,-99.99,,2013-04-20 20:12:00,
2013-04-20 15:22:00,48.0,27.0,-100.00,WNW,285,5.0,7.0,44,-99.99,,,-99.99,,2013-04-20 20:22:00,
2013-04-20 15:32:00,48.0,27.0,-100.00,WNW,285,5.0,7.0,44,-99.99,,,-99.99,,2013-04-20 20:32:00,
2013-04-20 15:42:00,50.0,28.0,-100.00,WSW,250,6.0,10.0,42,-99.99,,,-99.99,,2013-04-20 20:42:00,
2013-04-20 15:52:00,51.0,27.0,-100.00,WNW,285,6.0,9.0,40,-99.99,,,-99.99,,2013-04-20 20:52:00,
2013-04-20 16:01:00,51.0,27.0,-100.00,WNW,285,6.0,9.0,40,-99.99,,,-99.99,,2013-04-20 21:01:00,
2013-04-20 16:12:00,52.0,28.0,-100.00,WNW,285,5.0,11.0,39,-99.99,,,-99.99,,2013-04-20 21:12:00,
2013-04-20 16:22:00,50.0,26.0,-100.00,SW,235,8.0,11.0,39,-99.99,,,-99.99,,2013-04-20 21:22:00,
2013-04-20 16:33:00,50.0,26.0,-100.00,SW,235,8.0,11.0,39,-99.99,,,-99.99,,2013-04-20 21:33:00,
2013-04-20 16:43:00,52.0,26.0,-100.00,North,10,1.0,9.0,37,-99.99,,,-99.99,,2013-04-20 21:43:00,
2013-04-20 16:53:00,50.0,25.0,-100.00,SSE,165,4.0,10.0,38,-99.99,,,-99.99,,2013-04-20 21:53:00,
2013-04-20 17:02:00,50.0,25.0,-100.00,SSE,165,4.0,10.0,38,-99.99,,,-99.99,,2013-04-20 22:02:00,
2013-04-20 17:12:00,52.0,27.0,-100.00,NW,325,4.0,11.0,38,-99.99,,,-99.99,,2013-04-20 22:12:00,
2013-04-20 17:22:00,52.0,27.0,-100.00,West,280,2.0,6.0,38,-99.99,,,-99.99,,2013-04-20 22:22:00,
2013-04-20 17:32:00,52.0,27.0,-100.00,West,280,2.0,6.0,38,-99.99,,,-99.99,,2013-04-20 22:32:00,
2013-04-20 17:42:00,51.0,26.0,-100.00,NNE,20,8.0,13.0,38,-99.99,,,-99.99,,2013-04-20 22:42:00,
2013-04-20 17:53:00,49.0,25.0,-100.00,NNE,15,4.0,6.0,39,-99.99,,,-99.99,,2013-04-20 22:53:00,
2013-04-20 18:02:00,49.0,25.0,-100.00,NNE,15,4.0,6.0,39,-99.99,,,-99.99,,2013-04-20 23:02:00,
2013-04-20 18:11:00,47.0,25.0,-100.00,NE,55,4.0,7.0,41,-99.99,,,-99.99,,2013-04-20 23:11:00,
2013-04-20 18:22:00,48.0,26.0,-100.00,SE,125,7.0,11.0,42,-99.99,,,-99.99,,2013-04-20 23:22:00,
2013-04-20 18:32:00,48.0,26.0,-100.00,SE,125,7.0,11.0,42,-99.99,,,-99.99,,2013-04-20 23:32:00,
2013-04-20 18:42:00,48.0,26.0,-100.00,SE,140,6.0,9.0,42,-99.99,,,-99.99,,2013-04-20 23:42:00,
2013-04-20 18:53:00,48.0,26.0,-100.00,ESE,115,4.0,6.0,42,-99.99,,,-99.99,,2013-04-20 23:53:00,
2013-04-20 19:01:00,48.0,26.0,-100.00,ESE,115,4.0,6.0,42,-99.99,,,-99.99,,2013-04-21 00:01:00,
2013-04-20 19:11:00,48.0,25.0,-100.00,SE,140,2.0,4.0,41,-99.99,,,-99.99,,2013-04-21 00:11:00,
2013-04-20 19:22:00,47.0,26.0,-100.00,SSE,150,4.0,7.0,42,-99.99,,,-99.99,,2013-04-21 00:22:00,
2013-04-20 19:32:00,47.0,26.0,-100.00,SSE,150,4.0,7.0,42,-99.99,,,-99.99,,2013-04-21 00:32:00,
2013-04-20 19:42:00,47.0,26.0,-100.00,SSE,150,4.0,7.0,42,-99.99,,,-99.99,,2013-04-21 00:42:00,
2013-04-20 19:52:00,46.0,26.0,-100.00,SE,125,4.0,5.0,45,-99.99,,,-99.99,,2013-04-21 00:52:00,
2013-04-20 20:01:00,46.0,26.0,-100.00,SE,125,4.0,5.0,45,-99.99,,,-99.99,,2013-04-21 01:01:00,
2013-04-20 20:12:00,45.0,29.0,-100.00,SE,130,6.0,8.0,53,-99.99,,,-99.99,,2013-04-21 01:12:00,
2013-04-20 20:21:00,43.0,31.0,-100.00,SE,130,6.0,7.0,62,-99.99,,,-99.99,,2013-04-21 01:21:00,
2013-04-20 20:32:00,43.0,31.0,-100.00,SE,130,6.0,7.0,62,-99.99,,,-99.99,,2013-04-21 01:32:00,
2013-04-20 20:42:00,42.0,32.0,-100.00,SE,140,6.0,7.0,68,-99.99,,,-99.99,,2013-04-21 01:42:00,
2013-04-20 20:52:00,41.0,32.0,-100.00,ESE,115,5.0,6.0,71,-99.99,,,-99.99,,2013-04-21 01:52:00,
2013-04-20 21:02:00,41.0,32.0,-100.00,ESE,115,5.0,6.0,71,-99.99,,,-99.99,,2013-04-21 02:02:00,
2013-04-20 21:11:00,41.0,34.0,-100.00,East,95,6.0,7.0,76,-99.99,,,-99.99,,2013-04-21 02:11:00,
2013-04-20 21:21:00,40.0,33.0,-100.00,East,100,8.0,9.0,77,-99.99,,,-99.99,,2013-04-21 02:21:00,
2013-04-20 21:32:00,40.0,33.0,-100.00,East,100,8.0,9.0,77,-99.99,,,-99.99,,2013-04-21 02:32:00,
2013-04-20 21:42:00,40.0,34.0,-100.00,ESE,105,6.0,8.0,80,-99.99,,,-99.99,,2013-04-21 02:42:00,
2013-04-20 21:52:00,38.0,33.0,-100.00,East,80,7.0,9.0,82,-99.99,,,-99.99,,2013-04-21 02:52:00,
2013-04-20 22:01:00,38.0,33.0,-100.00,East,80,7.0,9.0,82,-99.99,,,-99.99,,2013-04-21 03:01:00,
2013-04-20 22:11:00,39.0,34.0,-100.00,East,90,8.0,8.0,82,-99.99,,,-99.99,,2013-04-21 03:11:00,
2013-04-20 22:21:00,38.0,32.0,-100.00,East,90,9.0,11.0,81,-99.99,,,-99.99,,2013-04-21 03:21:00,
2013-04-20 22:33:00,38.0,32.0,-100.00,East,90,9.0,11.0,81,-99.99,,,-99.99,,2013-04-21 03:33:00,
2013-04-20 22:42:00,38.0,33.0,-100.00,ESE,105,8.0,9.0,82,-99.99,,,-99.99,,2013-04-21 03:42:00,
2013-04-20 22:52:00,38.0,33.0,-100.00,ESE,105,7.0,8.0,84,-99.99,,,-99.99,,2013-04-21 03:52:00,
2013-04-20 23:02:00,38.0,33.0,-100.00,ESE,105,7.0,8.0,84,-99.99,,,-99.99,,2013-04-21 04:02:00,
2013-04-20 23:12:00,37.0,33.0,-100.00,East,95,7.0,9.0,85,-99.99,,,-99.99,,2013-04-21 04:12:00,
2013-04-20 23:23:00,37.0,33.0,-100.00,ESE,105,7.0,9.0,86,-99.99,,,-99.99,,2013-04-21 04:23:00,
2013-04-20 23:33:00,37.0,33.0,-100.00,ESE,105,7.0,9.0,86,-99.99,,,-99.99,,2013-04-21 04:33:00,
2013-04-20 23:42:00,37.0,33.0,-100.00,ESE,110,6.0,7.0,87,-99.99,,,-99.99,,2013-04-21 04:42:00,
2013-04-20 23:53:00,37.0,33.0,-100.00,ESE,110,8.0,9.0,88,-99.99,,,-99.99,,2013-04-21 04:53:00,